SPOT 5 - Orbit

View from above orbital plane
View from above orbital plane
View from above satellite
View from above satellite

Ground track
Ground track

The orbit data is extracted from the following two-line orbital elements,

1 27421U 02021A   13137.81286741  .00000213  00000-0  12023-3 0  4580
2 27421 098.6111 207.3418 0001055 104.2855 033.6029 14.20074403572209
Epoch (UTC): 17 May 2013 19:30:31
Eccentricity: 0.0001055
inclination: 98.6111°
perigee height: 824 km
apogee height: 826 km
right ascension of ascending node: 207.3418°
argument of perigee: 104.2855°
revolutions per day: 14.20074403
mean anomaly at epoch: 33.6029°
orbit number at epoch: 57220

The dashed part of the orbit path shows where the satellite is in the earth's shadow,  

Developed and maintained by Chris Peat, Heavens-Above GmbH. Please read the updated FAQ before sending e-mail. Imprint. DLR